Kyiv, Ukraine

10:29 PM EEST on September 22, 2019 (GMT +0300)
Zhuliany

Weather History for UKKK - August, 2019

Change the Weather History Date:

Tuesday, August 20, 2019

  Actual Average (UKBB) Record (UKBB)
Temperature  
Mean Temperature 74 °F -  
Max Temperature 89 °F 76 °F 95 °F (2007)
Min Temperature 60 °F 54 °F 46 °F (1997)
Cooling Degree Days 10    
Growing Degree Days 24 (Base 50)    
Moisture  
Dew Point 55 °F    
Average Humidity 54    
Maximum Humidity 88    
Minimum Humidity 21    
Precipitation  
Precipitation 0.00 in 0.07 in - ()
Sea Level Pressure  
Sea Level Pressure 30.17 in    
Wind  
Wind Speed 3 mph ()    
Max Wind Speed 7 mph    
Max Gust Speed -    
Visibility 11.3 miles    
Events      
Averages and records for this station are not official NWS values.
T = Trace of Precipitation, MM = Missing Value Source: Averaged Metar Reports

Daily Weather History Graph

Daily Weather History Graph

Search for Another Location

Airport or City:

Astronomy

Aug. 20, 2019 Rise Set
Actual Time 5:53 AM EEST 8:08 PM EEST
Civil Twilight 5:17 AM EEST 8:44 PM EEST
Nautical Twilight 4:33 AM EEST 9:28 PM EEST
Astronomical Twilight 3:41 AM EEST 10:19 PM EEST
Moon 10:20 PM EEST (8/20) 10:37 AM EEST (8/20)
Length of Visible Light 15h 26m
Length of Day
14h 15m
Waning Gibbous, 80% of the Moon is Illuminated
Aug 20
Waning Gibbous
Aug 23
Last Quarter
Aug 30
New
Sep 6
First Quarter
Sep 14
Full

Hourly Weather History & Observations

Time (EEST) Temp. Heat Index Dew Point Humidity Pressure Visibility Wind Dir Wind Speed Gust Speed Precip Events Conditions
12:00 AM 67 °F - 54 °F 54% 30.13 in 12 mi SSW 4.5 mph - -  
12:00 AM 60.8 °F - 55.4 °F 82% 30.12 in - Calm Calm - N/A   Clear
12:30 AM 60.8 °F - 53.6 °F 77% 30.12 in - Calm Calm - N/A   Clear
1:00 AM 60.8 °F - 53.6 °F 77% 30.12 in - Calm Calm - N/A   Clear
1:30 AM 60.8 °F - 53.6 °F 77% 30.12 in - Calm Calm - N/A   Clear
2:00 AM 60.8 °F - 53.6 °F 77% 30.12 in - Calm Calm - N/A   Clear
2:30 AM 60.8 °F - 51.8 °F 72% 30.12 in - Calm Calm - N/A   Clear
3:00 AM 67 °F - 50 °F 43% 30.13 in 12 mi SSW 6.7 mph - -  
3:00 AM 60.8 °F - 51.8 °F 72% 30.12 in - Variable 2.2 mph - N/A   Clear
3:30 AM 64.4 °F - 50.0 °F 59% 30.12 in - SSW 6.7 mph - N/A   Clear
4:00 AM 60.8 °F - 51.8 °F 72% 30.15 in - WSW 4.5 mph - N/A   Clear
4:30 AM 59.0 °F - 51.8 °F 77% 30.15 in - WSW 4.5 mph - N/A   Clear
5:00 AM 59.0 °F - 51.8 °F 77% 30.15 in - SW 4.5 mph - N/A   Clear
5:30 AM 57.2 °F - 51.8 °F 82% 30.15 in - SW 4.5 mph - N/A   Clear
6:00 AM 61 °F - 52 °F 65% 30.17 in 12 mi South 2.2 mph - -  
6:00 AM 57.2 °F - 51.8 °F 82% 30.15 in - Variable 2.2 mph - N/A   Clear
6:30 AM 59.0 °F - 51.8 °F 77% 30.15 in - Variable 2.2 mph - N/A   Clear
7:00 AM 60.8 °F - 57.2 °F 88% 30.18 in - WSW 4.5 mph - N/A   Clear
7:30 AM 66.2 °F - 59.0 °F 78% 30.18 in - West 4.5 mph - N/A   Clear
8:00 AM 69.8 °F - 55.4 °F 60% 30.18 in - Variable 2.2 mph - N/A   Clear
8:30 AM 71.6 °F - 55.4 °F 57% 30.18 in - SW 4.5 mph - N/A   Clear
9:00 AM 72 °F - 56 °F 48% 30.18 in 12 mi South 2.2 mph - -  
9:00 AM 73.4 °F - 55.4 °F 53% 30.18 in - SW 4.5 mph - N/A   Clear
9:30 AM 75.2 °F - 55.4 °F 50% 30.18 in - West 4.5 mph - N/A   Clear
10:00 AM 78.8 °F - 57.2 °F 47% 30.18 in - West 4.5 mph - N/A   Clear
10:30 AM 80.6 °F 80.5 °F 55.4 °F 42% 30.18 in - West 4.5 mph - N/A   Clear
11:00 AM 82.4 °F 81.7 °F 55.4 °F 39% 30.18 in - Variable 2.2 mph - N/A   Clear
11:30 AM 82.4 °F 81.7 °F 55.4 °F 39% 30.18 in - Variable 2.2 mph - N/A   Clear
12:00 PM 84.2 °F 82.8 °F 53.6 °F 35% 30.18 in - Variable 2.2 mph - N/A   Clear
12:30 PM 86.0 °F 84.9 °F 57.2 °F 37% 30.18 in - South 4.5 mph - N/A   Clear
1:30 PM 86.0 °F 84.2 °F 53.6 °F 33% 30.18 in - SSW 4.5 mph - N/A   Clear
2:00 PM 86.0 °F 84.5 °F 55.4 °F 35% 30.18 in - NNE 4.5 mph - N/A   Clear
2:30 PM 86.0 °F 84.5 °F 55.4 °F 35% 30.18 in - SW 4.5 mph - N/A   Clear
3:00 PM 88 °F - 54 °F 21% 30.15 in 12 mi ESE 6.7 mph - -  
3:00 PM 86.0 °F 84.2 °F 53.6 °F 33% 30.18 in - ESE 4.5 mph - N/A   Clear
3:30 PM 86.0 °F 84.2 °F 53.6 °F 33% 30.18 in - ESE 6.7 mph - N/A   Clear
4:00 PM 86.0 °F 84.5 °F 55.4 °F 35% 30.18 in - SE 4.5 mph - N/A   Clear
4:30 PM 87.8 °F 85.7 °F 53.6 °F 31% 30.18 in - South 6.7 mph - N/A   Clear
5:00 PM 86.0 °F 84.2 °F 53.6 °F 33% 30.18 in - Variable 2.2 mph - N/A   Clear
5:30 PM 86.0 °F 84.5 °F 55.4 °F 35% 30.18 in - SSE 4.5 mph - N/A   Clear
6:00 PM 87 °F - 54 °F 22% 30.15 in 12 mi South 2.2 mph - -  
6:00 PM 86.0 °F 84.2 °F 53.6 °F 33% 30.18 in - Variable 2.2 mph - N/A   Clear
6:30 PM 86.0 °F 84.9 °F 57.2 °F 37% 30.18 in - Variable 2.2 mph - N/A   Clear
7:30 PM 82.4 °F 81.7 °F 55.4 °F 39% 30.18 in - SE 4.5 mph - N/A   Clear
8:00 PM 78.8 °F - 55.4 °F 44% 30.18 in 6.2 mi SE 2.2 mph - N/A   Unknown
8:30 PM 77.0 °F - 55.4 °F 47% 30.18 in - ESE 4.5 mph - N/A   Clear
9:00 PM 76 °F - 56 °F 40% 30.18 in 12 mi South 2.2 mph - -  
9:00 PM 71.6 °F - 57.2 °F 60% 30.18 in - ESE 2.2 mph - N/A   Clear
9:30 PM 69.8 °F - 57.2 °F 64% 30.21 in - Calm Calm - N/A   Clear
10:00 PM 69.8 °F - 57.2 °F 64% 30.21 in - NE 2.2 mph - N/A   Clear
11:00 PM 69.8 °F - 57.2 °F 64% 30.21 in - East 4.5 mph - N/A   Clear
11:30 PM 66.2 °F - 57.2 °F 73% 30.21 in - ESE 2.2 mph - N/A   Clear